User: anonymous   Login
Location: Dover
(39.1580°N, 75.5250°W)
Time: 00:56:11
(UTC-04:00)
Language:

Cosmos 1437 Rocket - Orbit

View from above orbital plane
View from above orbital plane
View from above satellite
View from above satellite

Ground track
Ground track

The orbit data is extracted from the following two-line orbital elements,

1 13771U 83003B   17141.83824673 +.00001328 +00000-0 +79009-4 0  9991
2 13771 081.1514 033.0494 0043190 096.3241 264.2906 15.09764765869817
Epoch (UTC): 21 May 2017 20:07:04
Eccentricity: 0.0043190
inclination: 81.1514°
perigee height: 507 km
apogee height: 567 km
right ascension of ascending node: 33.0494°
argument of perigee: 96.3241°
revolutions per day: 15.09764765
mean anomaly at epoch: 264.2906°
orbit number at epoch: 86981

The dashed part of the orbit path shows where the satellite is in the earth's shadow,  

DLR